When you browse on this site, cookies collect data to enhance your experience and personalize the content and advertising you see.
Visit our Privacy Policy to learn more. By continuing to use the site, you agree to this use of cookies and data.
  • In Portugal
  • List of Countries
  • For 7 days
  • Water Temperature
  • Satellite Maps
  • Weather Map
  • Weather Widgets
  • user-avatar
    Login

    Hourly Weather Baltamahi

    Today, 26 June, Wednesday

    Time Temperature Precipitation Wind Pressure Humidity
    00:00 +24°C° 0 mm 2 mps 698 mmHg 67%
    01:00 +23°C° 0.1 mm 2 mps 698 mmHg 66%
    02:00 +23°C° 0.1 mm 2 mps 697 mmHg 66%
    03:00 +22°C° 0.1 mm 3 mps 697 mmHg 65%
    04:00 +24°C° 0.1 mm 2 mps 698 mmHg 64%
    05:00 +24°C° 0.1 mm 2 mps 698 mmHg 62%
    06:00 +25°C° 0.1 mm 2 mps 698 mmHg 61%
    07:00 +27°C° 0.1 mm 2 mps 699 mmHg 57%
    08:00 +28°C° 0.1 mm 3 mps 699 mmHg 52%
    09:00 +30°C° 0.1 mm 3 mps 699 mmHg 48%
    10:00 +30°C° 1.1 mm 4 mps 699 mmHg 53%
    11:00 +29°C° 1.1 mm 4 mps 699 mmHg 58%
    12:00 +28°C° 1.1 mm 5 mps 699 mmHg 63%
    13:00 +28°C° 1.9 mm 4 mps 699 mmHg 67%
    14:00 +27°C° 1.9 mm 4 mps 699 mmHg 71%
    15:00 +26°C° 1.9 mm 3 mps 699 mmHg 75%
    16:00 +26°C° 0.7 mm 2 mps 698 mmHg 78%
    17:00 +25°C° 0.7 mm 2 mps 698 mmHg 82%
    18:00 +24°C° 0.7 mm 1 mps 698 mmHg 85%
    19:00 +23°C° 1.8 mm 1 mps 698 mmHg 87%
    20:00 +22°C° 1.8 mm 1 mps 698 mmHg 90%
    21:00 +22°C° 1.8 mm 1 mps 698 mmHg 93%
    22:00 +21°C° 0.5 mm 1 mps 698 mmHg 91%
    23:00 +21°C° 0.5 mm 1 mps 698 mmHg 89%

    Tomorrow, 27 June, Thursday

    Time Temperature Precipitation Wind Pressure Humidity
    00:00 +20°C° 0.5 mm 2 mps 697 mmHg 87%
    01:00 +21°C° 0.1 mm 1 mps 697 mmHg 85%
    02:00 +20°C° 0.1 mm 1 mps 697 mmHg 83%
    03:00 +20°C° 0.1 mm 1 mps 697 mmHg 81%
    04:00 +21°C° 0.1 mm 1 mps 697 mmHg 80%
    05:00 +21°C° 0.1 mm 1 mps 697 mmHg 79%
    06:00 +20°C° 0.1 mm 0 mps 697 mmHg 77%
    07:00 +23°C° 0.2 mm 1 mps 697 mmHg 74%
    08:00 +24°C° 0.2 mm 2 mps 697 mmHg 72%
    09:00 +25°C° 0.2 mm 2 mps 697 mmHg 69%
    10:00 +25°C° 0.1 mm 2 mps 697 mmHg 68%
    11:00 +25°C° 0.1 mm 3 mps 697 mmHg 67%
    12:00 +26°C° 0.1 mm 3 mps 696 mmHg 66%
    13:00 +25°C° 0.2 mm 3 mps 696 mmHg 68%
    14:00 +25°C° 0.2 mm 2 mps 696 mmHg 69%
    15:00 +25°C° 0.2 mm 2 mps 695 mmHg 71%
    16:00 +24°C° 0.3 mm 2 mps 695 mmHg 72%
    17:00 +24°C° 0.3 mm 2 mps 695 mmHg 74%
    18:00 +23°C° 0.3 mm 2 mps 694 mmHg 75%
    19:00 +22°C° 0.1 mm 1 mps 694 mmHg 78%
    20:00 +21°C° 0.1 mm 1 mps 694 mmHg 80%
    21:00 +20°C° 0.1 mm 1 mps 694 mmHg 83%
    22:00 +20°C° 0 mm 1 mps 693 mmHg 82%
    23:00 +20°C° 0 mm 1 mps 693 mmHg 81%

    Day after tomorrow, 28 June, Friday

    Time Temperature Precipitation Wind Pressure Humidity
    00:00 +19°C° 0 mm 1 mps 693 mmHg 81%
    01:00 +19°C° 0 mm 1 mps 692 mmHg 79%
    02:00 +19°C° 0 mm 1 mps 692 mmHg 77%
    03:00 +19°C° 0 mm 1 mps 692 mmHg 76%
    04:00 +20°C° 0 mm 1 mps 692 mmHg 74%
    05:00 +21°C° 0 mm 1 mps 692 mmHg 72%
    06:00 +22°C° 0 mm 1 mps 692 mmHg 70%
    07:00 +23°C° 0 mm 2 mps 692 mmHg 65%
    08:00 +24°C° 0 mm 3 mps 692 mmHg 59%
    09:00 +26°C° 0 mm 3 mps 692 mmHg 54%
    10:00 +27°C° 0.1 mm 3 mps 691 mmHg 53%
    11:00 +27°C° 0.1 mm 4 mps 691 mmHg 51%
    12:00 +28°C° 0.1 mm 4 mps 691 mmHg 49%
    13:00 +28°C° 0.2 mm 4 mps 691 mmHg 50%
    14:00 +27°C° 0.2 mm 4 mps 690 mmHg 51%
    15:00 +27°C° 0.2 mm 4 mps 690 mmHg 52%
    16:00 +26°C° 0 mm 3 mps 689 mmHg 57%
    17:00 +25°C° 0 mm 2 mps 689 mmHg 61%
    18:00 +25°C° 0 mm 2 mps 688 mmHg 65%
    19:00 +24°C° 0 mm 2 mps 689 mmHg 68%
    20:00 +22°C° 0 mm 1 mps 689 mmHg 71%
    21:00 +21°C° 0 mm 1 mps 689 mmHg 74%
    22:00 +21°C° 0 mm 1 mps 689 mmHg 73%
    23:00 +21°C° 0 mm 1 mps 689 mmHg 72%

    29 June, Saturday

    Time Temperature Precipitation Wind Pressure Humidity
    00:00 +21°C° 0 mm 1 mps 689 mmHg 71%
    01:00 +21°C° 0 mm 1 mps 688 mmHg 73%
    02:00 +20°C° 0 mm 1 mps 688 mmHg 76%
    03:00 +19°C° 0 mm 2 mps 688 mmHg 78%
    04:00 +20°C° 0 mm 2 mps 688 mmHg 78%
    05:00 +21°C° 0 mm 1 mps 689 mmHg 77%
    06:00 +22°C° 0 mm 1 mps 689 mmHg 76%
    07:00 +23°C° 0 mm 2 mps 689 mmHg 72%
    08:00 +24°C° 0 mm 3 mps 689 mmHg 69%
    09:00 +25°C° 0 mm 4 mps 689 mmHg 65%
    10:00 +25°C° 0.2 mm 4 mps 689 mmHg 65%
    11:00 +25°C° 0.2 mm 3 mps 689 mmHg 65%
    12:00 +25°C° 0.2 mm 3 mps 689 mmHg 65%
    13:00 +25°C° 0.5 mm 3 mps 689 mmHg 69%
    14:00 +24°C° 0.5 mm 3 mps 689 mmHg 73%
    15:00 +24°C° 0.5 mm 3 mps 689 mmHg 76%
    16:00 +23°C° 1.9 mm 2 mps 689 mmHg 82%
    17:00 +21°C° 1.9 mm 2 mps 689 mmHg 88%
    18:00 +20°C° 1.9 mm 2 mps 689 mmHg 94%
    19:00 +20°C° 0.4 mm 3 mps 690 mmHg 93%
    20:00 +19°C° 0.4 mm 3 mps 691 mmHg 92%
    21:00 +19°C° 0.4 mm 3 mps 691 mmHg 92%
    22:00 +18°C° 1 mm 3 mps 691 mmHg 92%
    23:00 +18°C° 1 mm 3 mps 691 mmHg 92%

    30 June, Sunday

    Time Temperature Precipitation Wind Pressure Humidity
    00:00 +17°C° 1 mm 3 mps 691 mmHg 92%
    01:00 +17°C° 0.5 mm 3 mps 691 mmHg 89%
    02:00 +17°C° 0.5 mm 3 mps 691 mmHg 87%
    03:00 +17°C° 0.5 mm 3 mps 691 mmHg 84%
    04:00 +17°C° 0 mm 2 mps 691 mmHg 82%
    05:00 +17°C° 0 mm 2 mps 691 mmHg 80%
    06:00 +18°C° 0 mm 2 mps 691 mmHg 78%
    07:00 +18°C° 0 mm 2 mps 692 mmHg 75%
    08:00 +19°C° 0 mm 2 mps 692 mmHg 71%
    09:00 +20°C° 0 mm 3 mps 692 mmHg 67%
    10:00 +20°C° 0 mm 3 mps 692 mmHg 67%
    11:00 +20°C° 0 mm 3 mps 692 mmHg 68%
    12:00 +21°C° 0 mm 3 mps 692 mmHg 68%
    13:00 +21°C° 0 mm 3 mps 691 mmHg 69%
    14:00 +21°C° 0 mm 2 mps 691 mmHg 71%
    15:00 +21°C° 0 mm 2 mps 691 mmHg 72%
    16:00 +20°C° 0.2 mm 2 mps 691 mmHg 76%
    17:00 +19°C° 0.2 mm 2 mps 692 mmHg 81%
    18:00 +19°C° 0.2 mm 2 mps 692 mmHg 85%
    19:00 +18°C° 0.6 mm 2 mps 692 mmHg 87%
    20:00 +17°C° 0.6 mm 3 mps 693 mmHg 90%
    21:00 +15°C° 0.6 mm 4 mps 693 mmHg 92%
    22:00 +15°C° 2.7 mm 4 mps 693 mmHg 92%
    23:00 +14°C° 2.7 mm 4 mps 693 mmHg 92%

    1 July, Monday

    Time Temperature Precipitation Wind Pressure Humidity
    00:00 +14°C° 2.7 mm 4 mps 693 mmHg 92%
    01:00 +13°C° 1 mm 3 mps 693 mmHg 91%
    02:00 +13°C° 1 mm 3 mps 693 mmHg 89%
    03:00 +14°C° 1 mm 2 mps 693 mmHg 87%
    04:00 +14°C° 0.5 mm 2 mps 693 mmHg 88%
    05:00 +14°C° 0.5 mm 2 mps 693 mmHg 88%
    06:00 +14°C° 0.5 mm 2 mps 693 mmHg 88%
    07:00 +14°C° 0.4 mm 2 mps 693 mmHg 86%
    08:00 +15°C° 0.4 mm 2 mps 694 mmHg 84%
    09:00 +15°C° 0.4 mm 2 mps 694 mmHg 83%
    10:00 +14°C° 1.3 mm 2 mps 694 mmHg 86%
    11:00 +13°C° 1.3 mm 3 mps 694 mmHg 89%
    12:00 +13°C° 1.3 mm 3 mps 694 mmHg 92%
    13:00 +12°C° 1.4 mm 3 mps 694 mmHg 91%
    14:00 +12°C° 1.4 mm 3 mps 694 mmHg 91%
    15:00 +12°C° 1.4 mm 3 mps 694 mmHg 90%
    16:00 +12°C° 1.2 mm 3 mps 694 mmHg 90%
    17:00 +13°C° 1.2 mm 2 mps 694 mmHg 89%
    18:00 +13°C° 1.2 mm 1 mps 694 mmHg 88%
    19:00 +13°C° 0.7 mm 1 mps 694 mmHg 88%
    20:00 +13°C° 0.7 mm 1 mps 694 mmHg 89%
    21:00 +13°C° 0.7 mm 1 mps 695 mmHg 89%
    22:00 +13°C° 0.3 mm 1 mps 695 mmHg 87%
    23:00 +13°C° 0.3 mm 1 mps 695 mmHg 85%
    Show more